Preview of NWS' New Version of Forecast
This preview is not operational and should not be used for support decisions.

Regional Weather Roundup (RWR)

Issued by National Weather Service (NWS)

                            
000
ASUS43 KTOP 201608
RWRKS 

WEATHER ROUNDUP FOR KANSAS
NATIONAL WEATHER SERVICE GOODLAND KS
1100 AM CDT TUE AUG 20 2019

NOTE:  "FAIR" INDICATES FEW OR NO CLOUDS BELOW 12,000 FEET WITH NO
SIGNIFICANT WEATHER AND/OR OBSTRUCTIONS TO VISIBILITY.

KSZ001>006-013>018-027>032-041>047-201700-
NORTHWEST KANSAS
  
CITY           SKY/WX    TMP DP  RH WIND       PRES   REMARKS
GOODLAND       FAIR      83  60  45 S6        30.03S                  
HAYS           FAIR      88  69  53 SW14      29.99R                  
HILL CITY      FAIR      87  66  49 W5        29.98R                  
RUSSELL        FAIR      89  68  49 SW18G29   29.96S                  
$$

KSZ061>065-074>080-084>089-201700-
SOUTHWEST KANSAS
  
CITY           SKY/WX    TMP DP  RH WIND       PRES   REMARKS
DODGE CITY     FAIR      92  64  39 SW18      30.02S                  
ELKHART        FAIR      93  62  35 SW25G32   30.07S                  
GARDEN CITY    FAIR      87  62  43 S13       30.02S                  
GREAT BEND     FAIR      86  71  60 SW12      29.98S                  
LIBERAL        FAIR      92  64  39 SW18G28   30.05R                  
PRATT          FAIR      94  64  36 SW16      30.01S HX  96           
$$

KSZ066>073-081>083-090>101-201700-
SOUTHEAST KANSAS
  
CITY           SKY/WX    TMP DP  RH WIND       PRES   REMARKS
CHANUTE        FAIR      91  75  59 SW13G23   30.01F HX 101           
COFFEYVILLE    FAIR      90  74  59 SW12      30.00F HX  99           
HUTCHINSON     FAIR      91  71  51 S13       29.98F HX  97           
MEDICINE LODGE   N/A     90  68  48 S8        29.99S                  
NEWTON         FAIR      87  73  62 S16       30.00F                  
PARSONS        FAIR      89  77  67 SW9       30.02F HX 101           
WICHITA INTL   FAIR      91  70  49 SW13      29.99F HX  96           
WICHITA JABRA  FAIR      89  71  55 S14G22    30.00S HX  95           
WICHITA MCCONL FAIR      89  67  47 S15G21    30.00F                  
$$

KSZ007>012-019>026-033>040-048>060-102>105-201700-
NORTHEAST KANSAS
  
CITY           SKY/WX    TMP DP  RH WIND       PRES   REMARKS
CONCORDIA      FAIR      86  73  65 SW12      29.95S                  
EMPORIA        FAIR      90  75  61 SW10      29.99S HX 100           
LAWRENCE       FAIR      90  73  57 VRB3G18   29.95F HX  98           
MANHATTAN      FAIR      88  73  61 SW16      29.93F HX  95           
MARYSVILLE     FAIR      88  73  62 W13       29.95R HX  96           
OLATHE IND     FAIR      88  73  61 SW16G24   29.99S HX  95           
OLATHE EXE     FAIR      87  73  62 SW12      29.98F                  
SALINA         FAIR      91  72  53 S15       29.95S HX  98           
TOPEKA BILLARD FAIR      88  71  57 SW10G21   29.94S                  
TOPEKA FORBES  FAIR      89  73  59 SW10      29.95F HX  97           
$$